sat.trackr.live / text

‹ back to catalog

STARLINK-35681

NORAD 66395 · 2025-257R

PAYLOAD ACTIVE UNKNOWN

§ Identity

Operator
Country
US
Launch date
2025-11-09
Launch site
AFETR
Launch vehicle
Mass (kg)
RCS (m²)

Purposes: comms

External: N2YO · Heavens-Above · Gunter

§ Orbital elements

Epoch: 2026-09-20T22:16:32.290464Z

Period
93.85 min
Inclination
53.1599°
Eccentricity
0.0001588
Mean motion
15.34404894 rev/d
Perigee alt
461.6 km
Apogee alt
463.8 km
Semi-major
6,840.8 km
B*
4.9743e-4
RAAN
27.4493°
Arg perigee
51.0705°
Mean anomaly
309.0439°
Rev number
4,958

§ Raw data

STARLINK-356811 66395U 25257R   26263.92815151  .00016470  00000+0  49743-3 0  99982 66395  53.1599  27.4493 0001588  51.0705 309.0439 15.34404894 49588

JSON: /api/v1/satellites/66395 · /tle

For live sub-satellite position, see the globe view (requires WebGL).

§ Visibility from observer

Set your observer location to see the next 7 days of passes ≥ 10°. The values pass through the URL so the page stays shareable.

No JS? Fill the form by hand. The geolocation button needs JavaScript.